Regional Weather Roundup
Issued by NWS

Home | Current Version | Previous Version | Graphics & Text | Print | Product List | Glossary On
Versions: 1 2 3 4 5 6 7 8 9 10 11 12 13 14 15 16 17 18 19 20 21 22 23 24 25 26 27 28 29 30 31 32 33 34 35 36 37 38 39 40 41 42 43 44 45 46 47 48 49 50
000
ASUS43 KMKX 251559
RWRWI

WISCONSIN REGIONAL WEATHER ROUNDUP
NATIONAL WEATHER SERVICE MILWAUKEE/SULLIVAN WI
1100 AM CDT THU MAY 25 2017

NOTE: "FAIR" INDICATES FEW OR NO CLOUDS BELOW 12,000 FEET WITH NO
SIGNIFICANT WEATHER AND/OR OBSTRUCTIONS TO VISIBILITY.

WIZ001-002-006>008-014>016-023>028-251700-
NORTHWEST WISCONSIN

CITY           SKY/WX    TMP DP  RH WIND       PRES   REMARKS
SUPERIOR ARPT  NOT AVBL
ASHLAND        SUNNY     58  47  66 N7        29.75F
HAYWARD        MOSUNNY   63  46  54 SE9       29.72F
SIREN          PTSUNNY   63  45  52 S7        29.70F
CUMBERLAND     CLOUDY    59  45  58 SE3       29.72S
RICE LAKE      PTSUNNY   61  47  59 SE5       29.73F
CHETEK         MOSUNNY   62  49  62 CALM      29.71F
LADYSMITH      MOSUNNY   63  49  61 CALM      29.73F
EAU CLAIRE     NOT AVBL
MENOMONIE      PTSUNNY   61  51  68 SE3       29.71F
NEW RICHMOND   MOSUNNY   62  48  60 S8        29.71F
OSCEOLA        MOSUNNY   62  50  64 SE10      29.72F
$$

WIZ003>005-009-010-017-018-251700-
NORTH CENTRAL WISCONSIN

CITY           SKY/WX    TMP DP  RH WIND       PRES   REMARKS
MANITOWISH WTR MOSUNNY   63  48  59 E6        29.73S
ARBOR VITAE    SUNNY     63  48  57 E5        29.72S
WOODRUFF       SUNNY     63  48  57 E5        29.72S
RHINELANDER    SUNNY     65  49  56 E6        29.71F
EAGLE RIVER    SUNNY     63  45  52 E8        29.71F
LAND O LAKES   SUNNY     63  45  52 E3        29.74F
PHILLIPS       PTSUNNY   61  49  65 CALM      29.72F
TOMAHAWK       SUNNY     64  49  59 E6        29.72S
MEDFORD        PTSUNNY   61  51  70 NE5       29.71F
MERRILL        SUNNY     64  50  60 N3        29.70F
$$

WIZ029-030-035-036-043>047-251700-
CENTRAL WISCONSIN

CITY           SKY/WX    TMP DP  RH WIND       PRES   REMARKS
WAUSAU         PTSUNNY   65  51  60 VRB7      29.68F
MOSINEE        PTSUNNY   64  54  68 NE5       29.70F
MARSHFIELD     SUNNY     65  52  62 NE6       29.68F
STEVENS POINT  MOSUNNY   61  52  70 NE6       29.70S
WAUPACA        SUNNY     65  53  64 NE9       29.69S
WAUTOMA        MOSUNNY   65  53  65 E8        29.69S
WISC RAPIDS    PTSUNNY   67  53  61 N6        29.70F
CAMP DOUGLAS   NOT AVBL
$$

WIZ011>013-019>022-031-037>040-048>050-251700-
NORTHEAST WISCONSIN

CITY           SKY/WX    TMP DP  RH WIND       PRES   REMARKS
ANTIGO         SUNNY     63  51  67 NE10      29.70F
SHAWANO        SUNNY     64  53  66 NE3       29.69F
OCONTO         MOSUNNY   61  51  70 E10G17    29.68F
STURGEON BAY   SUNNY     58  50  75 N15       29.68F
GREEN BAY      SUNNY     62  56  80 NE14      29.68F
MANITOWOC      NOT AVBL
APPLETON       PTSUNNY   63  50  63 N10G20    29.66F
CLINTONVILLE   SUNNY     63  50  63 NE7       29.68F
OSHKOSH        SUNNY     60  52  74 NE14      29.67S
$$

WIZ032>034-041-042-053>061-251700-
SOUTHWEST WISCONSIN

CITY           SKY/WX    TMP DP  RH WIND       PRES   REMARKS
LA CROSSE      CLOUDY    62  52  69 NE6       29.70F
SPARTA         MOSUNNY   59  52  78 W6        29.71F
VIROQUA        CLOUDY    55  51  87 MISG      29.71S
BOSCOBEL       CLOUDY    61  52  72 VRB3      29.70F
PRAIRIE DU CHI PTSUNNY   58  49  70 NW5       29.71S
PLATTEVILLE    CLOUDY    55  54  94 N5        29.70S
$$

WIZ056-057-062-063-064-067-068-251700-
SOUTH CENTRAL WISCONSIN

CITY           SKY/WX    TMP DP  RH WIND       PRES   REMARKS
REEDSBURG      CLOUDY    58  53  85 N3        29.69S
BARABOO/DELLS  PTSUNNY   58  50  75 NW5       29.69S
LONE ROCK      NOT AVBL
MINERAL POINT  CLOUDY    57  54  88 N7        29.69F
MADISON        PTSUNNY   58  52  80 NE8       29.68S
MIDDLETON      CLOUDY    58  53  81 NW10G18   29.68F
WATERTOWN      CLOUDY    56  53  91 N9        29.67R
MONROE         CLOUDY    55  52  88 N8        29.68S
JANESVILLE     CLOUDY    57  55  94 N14       29.67R
$$

WIZ051-052-058>065-066-070>072-251700-
SOUTHEAST WISCONSIN

CITY           SKY/WX    TMP DP  RH WIND       PRES   REMARKS
MILWAUKEE      MOSUNNY   61  52  72 NE16      29.64S
WAUKESHA       PTSUNNY   59  52  77 NW9       29.66R
MILWAUKEE/TIMM PTSUNNY   63  52  67 N9G17     29.64F
RACINE         SUNNY     60  51  72 N16G24    29.65R
KENOSHA        CLOUDY    62  54  74 NW10      29.63S
FOND DU LAC    CLOUDY    59  51  75 N9        29.68S
SHEBOYGAN      PTSUNNY   62  55  77 N13G18    29.64F
WEST BEND      PTSUNNY   59  54  82 NE10      29.65S
JUNEAU         CLOUDY    56  51  85 N10       29.68F
$$

LSZ147-162-251700-
LAKE SUPERIOR

STATION/POSITION TIME  TEMP    WIND        PRES    WAVE
                       AIR SEA DIR/SP/G            HT/PER
                 (UTC) (F)     (DEG/KT/KT) (MB)    (FT/S)
$$

LMZ867-665-643>646-251700-
LAKE MICHIGAN

STATION/POSITION TIME  TEMP    WIND        PRES    WAVE
                       AIR SEA DIR/SP/G            HT/PER
                 (UTC) (F)     (DEG/KT/KT) (MB)    (FT/S)
$$

TC  - TEMPERATURE IN CELSIUS
VSB - VISIBILITY IN STATUTE MILES
WCI - WIND CHILL INDEX
HX  - HEAT INDEX





USA.gov is the U.S. government's official web portal to all federal, state and local government web resources and services.